Terug naar catalogus

STARLINK-33757

ActiefCommunicatieVLEO
NORAD 63720·PAYLOAD·🇺🇸 United States

Gelanceerd Apr 28, 2025 vanaf Vandenberg Space Force Base

Loading…

Volgende Passages (komende 24 uur)

TLE

VersSource: CelesTrak SupGP

Epoch: Sep 15, 2026, 03:05 UTC

1 63720C 25087Z   26258.12895833 -.00023240  00000+0 -68679-3 0  2581
2 63720  53.1598  58.5789 0001198  88.2541  83.1792 15.34395680    15

Volg STARLINK-33757 in realtime met AllMySat

Download on the App Store